Simultaneous Nadir Overpasses (SNOs) Predictions

Prediction of SNOs between FY3D and LANDSAT-8 Satellite Orbit:

Table of predicted SNOs for the next 14.0 days since TLE Epoch: 8/10/2024
Index Date (FY3D) Time (FY3D) Lat,Lon (FY3D) SZA (FY3D ) Date (LANDSAT-8) Time (LANDSAT-8) Lat,Lon (LANDSAT-8) SZA (LANDSAT-8 ) Distance(km) Time Diff (sec)
1 08/10/2024 22:53:17 74.84,-159.44 59.58 08/10/2024 22:54:29 74.73,-158.86 59.48 21.04 72
2 08/10/2024 23:43:56 -74.61, 8.52 120.64 08/10/2024 23:43:59 -74.60, 8.46 120.65 2.09 3
3 08/11/2024 00:34:39 74.43, 176.32 59.21 08/11/2024 00:33:26 74.53, 175.93 59.30 16.45 73
4 08/13/2024 15:10:34 74.66, -43.22 60.22 08/13/2024 15:11:02 74.67, -43.12 60.24 3.28 28
5 08/13/2024 16:01:16 -74.57, 124.34 119.86 08/13/2024 16:00:31 -74.60, 124.34 119.83 3.44 45
6 08/16/2024 06:37:08 -74.68, -94.85 118.94 08/16/2024 06:38:07 -74.69, -94.84 118.92 1.86 59
7 08/16/2024 07:27:53 74.60, 72.68 61.00 08/16/2024 07:27:34 74.61, 72.60 61.01 2.79 19
8 08/18/2024 22:03:53 75.15,-147.82 62.37 08/18/2024 22:05:01 75.05,-145.69 62.31 61.95 68
9 08/18/2024 22:54:27 -74.67, 20.88 118.07 08/18/2024 22:54:36 -74.68, 21.00 118.07 3.58 9
10 08/18/2024 23:45:12 74.60,-171.60 61.87 08/18/2024 23:44:03 74.59,-171.56 61.86 1.26 69
11 08/21/2024 14:21:03 74.69, -30.76 62.83 08/21/2024 14:21:37 74.66, -30.78 62.80 2.90 34
12 08/21/2024 15:11:45 -74.59, 136.83 117.26 08/21/2024 15:11:06 -74.60, 136.70 117.26 4.01 39



Historial Predications of SNOs between FY3D and LANDSAT-8
